Weather Roundup
Issued by NWS Corpus Christi, TX

Home | Current Version | Previous Version | Text Only | Print | Product List | Glossary On
Versions: 1 2 3 4 5 6 7 8 9 10 11 12 13 14 15 16 17 18 19 20 21 22 23 24 25 26 27 28 29 30 31 32 33 34 35 36 37 38 39 40 41 42 43 44 45 46 47 48 49 50
000
ASUS44 KCRP 250810
HRRCRP

SOUTH TEXAS REGIONAL WEATHER ROUNDUP
NATIONAL WEATHER SERVICE CORPUS CHRISTI TX
300 AM CDT MON MAY 25 2015


TXZ229>244-250900-
...CORPUS CHRISTI AREA OBSERVATIONS...

CITY           SKY/WX    TMP DP  RH WIND       PRES   REMARKS
CORPUS CHRISTI PTCLDY    77  73  87 SE10      29.87F
NAS CORPUS CHR PTCLDY    78  74  87 S14       29.87F
ROCKPORT       PTCLDY    79  73  82 SE12      29.87F
KINGSVILLE NAS CLEAR     78  76  93 SE12      29.85F
ALICE          CLEAR     76  73  91 SE10      29.85F
FALFURRIAS     CLEAR     76  73  91 SE10      29.85F
$$

...VICTORIA AREA OBSERVATIONS...

CITY           SKY/WX    TMP DP  RH WIND       PRES   REMARKS
VICTORIA       PTCLDY    73  73 100 SE6       29.89F
BEEVILLE       FAIR      72  72 100 SE5       29.88S
PLEASANTON     CLEAR     72  70  93 E5        29.88S
SAN ANTONIO    MOCLDY    73  69  87 SE6       29.90S
$$

...LAREDO AREA OBSERVATIONS...

CITY           SKY/WX    TMP DP  RH WIND       PRES   REMARKS
LAREDO         CLOUDY    77  72  84 SE16      29.82F
COTULLA        CLEAR     76  71  85 SE14      29.83F
DEL RIO        CLOUDY    75  70  84 SE10      29.79S
MCALLEN        CLOUDY    78  73  84 SE8       29.85F
HEBBRONVILLE     N/A     73  71  91 SE13      29.85F
$$

...OTHER TEXAS OBSERVATIONS...

CITY           SKY/WX    TMP DP  RH WIND       PRES   REMARKS
BROWNSVILLE    CLEAR     77  74  90 S8        29.87F
HOUSTON        PTCLDY    73  70  90 S5        29.93F
COL. STATION   CLEAR     71  69  93 S10       29.91F
AUSTIN         CLOUDY    72  71  97 S8        29.89F
WACO           LGT RAIN  70  68  93 S12       29.88F
FORT WORTH     PTCLDY    69  68  96 S10       29.86F
WICHITA FALLS  CLEAR     67  66  97 S10       29.81F
LUBBOCK        CLEAR     65  47  52 S16       29.83F
EL PASO        MOCLDY    69  29  22 NW14      29.92S
$$

...MARINE OBSERVATIONS...

STATION/POSITION TIME  SKY/WX   TEMP    WIND        PRES    VSBY  WAVE   SWELL
                                AIR SEA DIR/SP/G                  HT/PER HT/PER
                 (UTC)          (F)     (DEG/KT/KT) (MB)    (MI)  (FT/S) (FT/S)
PORT ARANSAS     0800            80 80  140/ 20/ 23 1011.9F
BUOY 90 E PORT A 0750            79 79  160/ 14/ 16 1012.9F         4/ 6   2/ 7
BUOY 45 SE BAFFI 0750            80 80  150/ 16/ 17 1011.2F         5/ 7   3/ 7
BUOY 200 E PT IS 0750            81 81  130/ 19/ 21 1013.8F         5/ 7
BUOY 15 E GALVES 0750            78 79  180/ 12/ 14 1013.1F         3/ 7   2/ 7
$$



USA.gov is the U.S. government's official web portal to all federal, state and local government web resources and services.